Regional Weather Roundup
Issued by NWS

Home | Current Version | Previous Version | Graphics & Text | Print | Product List | Glossary On
Versions: 1 2 3 4 5 6 7 8 9 10 11 12 13 14 15 16 17 18 19 20 21 22 23 24 25 26 27 28 29 30 31 32 33 34 35 36 37 38 39 40 41 42 43 44 45 46 47 48 49 50
000
ASUS43 KMKX 241511
RWRWI

WISCONSIN REGIONAL WEATHER ROUNDUP
NATIONAL WEATHER SERVICE MILWAUKEE/SULLIVAN WI
1000 AM CDT WED MAY 24 2017

NOTE: "FAIR" INDICATES FEW OR NO CLOUDS BELOW 12,000 FEET WITH NO
SIGNIFICANT WEATHER AND/OR OBSTRUCTIONS TO VISIBILITY.

WIZ001-002-006>008-014>016-023>028-241600-
NORTHWEST WISCONSIN

CITY           SKY/WX    TMP DP  RH WIND       PRES   REMARKS
SUPERIOR ARPT  NOT AVBL
ASHLAND        PTSUNNY   51  43  74 NE14      29.82F
HAYWARD        CLOUDY    50  43  77 N14       29.80S
SIREN          CLOUDY    52  43  71 NE8       29.79F
CUMBERLAND     CLOUDY    50  43  76 NE12      29.78S
RICE LAKE      CLOUDY    53  45  74 N16       29.78F
CHETEK         CLOUDY    54  46  75 CALM      29.76F
LADYSMITH      CLOUDY    55  45  69 NE8       29.77S
EAU CLAIRE     MOSUNNY   57  45  64 NE10      29.73F
MENOMONIE      SUNNY     55  46  69 N7        29.75F
NEW RICHMOND   CLOUDY    53  44  72 NE8       29.77F
OSCEOLA        CLOUDY    53  46  75 N7        29.81S
$$

WIZ003>005-009-010-017-018-241600-
NORTH CENTRAL WISCONSIN

CITY           SKY/WX    TMP DP  RH WIND       PRES   REMARKS
MANITOWISH WTR CLOUDY    50  46  84 N8        29.77S
ARBOR VITAE    CLOUDY    52  44  75 NE13G18   29.75F
WOODRUFF       CLOUDY    52  44  75 NE13G18   29.75F
RHINELANDER    CLOUDY    50  46  86 NE9       29.75F
EAGLE RIVER    DRIZZLE   47  45  92 NE8       29.75S
LAND O LAKES   RAIN      48  45  90 CALM      29.78S
PHILLIPS       CLOUDY    53  44  72 E9        29.75S
TOMAHAWK       CLOUDY    48  43  82 NE6       29.75F
MEDFORD        CLOUDY    49  45  86 NE9       29.73F
MERRILL        CLOUDY    49  47  93 NE9       29.73F
$$

WIZ029-030-035-036-043>047-241600-
CENTRAL WISCONSIN

CITY           SKY/WX    TMP DP  RH WIND       PRES   REMARKS
WAUSAU         CLOUDY    50  48  93 N8        29.70F
MOSINEE        LGT RAIN  48  48 100 N8        29.72F FOG
MARSHFIELD     CLOUDY    51  47  86 NE12      29.70F
STEVENS POINT  CLOUDY    48  48 100 NE10      29.71S
WAUPACA        CLOUDY    51  50  95 NE7       29.71S FOG
WAUTOMA        CLOUDY    50  48  93 NE12      29.69F
WISC RAPIDS    CLOUDY    51  49  92 NE8       29.71S
CAMP DOUGLAS   DRIZZLE   50  48  93 NE3       29.70S
$$

WIZ011>013-019>022-031-037>040-048>050-241600-
NORTHEAST WISCONSIN

CITY           SKY/WX    TMP DP  RH WIND       PRES   REMARKS
ANTIGO         CLOUDY    49  47  94 NE15      29.72F
SHAWANO        CLOUDY    51  48  91 NE8       29.72S
OCONTO         CLOUDY    48  47  96 NE7       29.72S
STURGEON BAY   CLOUDY    50  48  93 NE6       29.72S
GREEN BAY      CLOUDY    51  51 100 N16G23    29.70S
MANITOWOC      LGT RAIN  49  47  93 NE5       29.70R
APPLETON       CLOUDY    48  48 100 NE9       29.68S
CLINTONVILLE   CLOUDY    48  46  93 NE6       29.71S
OSHKOSH        CLOUDY    51  49  92 N13       29.68S
$$

WIZ032>034-041-042-053>061-241600-
SOUTHWEST WISCONSIN

CITY           SKY/WX    TMP DP  RH WIND       PRES   REMARKS
LA CROSSE      CLOUDY    54  48  80 NE9       29.71S
SPARTA         CLOUDY    50  48  93 NE8       29.71F
VIROQUA        CLOUDY    50  48  92 MISG      29.69F
BOSCOBEL       CLOUDY    54  49  83 N9        29.68S
PRAIRIE DU CHI CLOUDY    54  46  76 N7        29.68S
PLATTEVILLE    CLOUDY    54  53  94 N14       29.66S
$$

WIZ056-057-062-063-064-067-068-241600-
SOUTH CENTRAL WISCONSIN

CITY           SKY/WX    TMP DP  RH WIND       PRES   REMARKS
REEDSBURG      CLOUDY    49  49 100 NE8       29.68S
BARABOO/DELLS  CLOUDY    50  49  95 NE7       29.67F
LONE ROCK      CLOUDY    53  49  86 NE9       29.67S
MINERAL POINT  CLOUDY    54  52  94 NE9       29.66R
MADISON        CLOUDY    52  51  97 N10       29.65S
MIDDLETON      CLOUDY    52  52 100 N9        29.66S
WATERTOWN      CLOUDY    52  52 100 N6        29.64F
MONROE         DRIZZLE   50  50 100 N7        29.64S
JANESVILLE     CLOUDY    54  54 100 N12       29.63S FOG
$$

WIZ051-052-058>065-066-070>072-241600-
SOUTHEAST WISCONSIN

CITY           SKY/WX    TMP DP  RH WIND       PRES   REMARKS
MILWAUKEE      DRZL/FOG  51  51 100 N15G22    29.62F VSB 1/2
WAUKESHA       LGT RAIN  50  50 100 NE9       29.64F
MILWAUKEE/TIMM DRIZZLE   52  50  93 NE10      29.64F
RACINE         CLOUDY    49  47  93 N15       29.62F
KENOSHA        CLOUDY    53  50  89 NE15G24   29.59F
FOND DU LAC    CLOUDY    52  48  86 N12       29.67F
SHEBOYGAN      LGT RAIN  49  49 100 NE7       29.68R FOG
WEST BEND      DRIZZLE   50  50 100 NE7       29.66F
JUNEAU         CLOUDY    51  49  95 N8        29.67S
$$

LSZ147-162-241600-
LAKE SUPERIOR

STATION/POSITION TIME  TEMP    WIND        PRES    WAVE
                       AIR SEA DIR/SP/G            HT/PER
                 (UTC) (F)     (DEG/KT/KT) (MB)    (FT/S)
W MID LAKE BUOY  1450   40 37   30/ 10/ 12 1010.8S   1
DEVILS ISLAND    1500   42      40/ 13/ 14 1010.9F
SAXON HARBOR     1440   43     340/  6/  7 1009.8S
$$

LMZ867-665-643>646-241600-
LAKE MICHIGAN

STATION/POSITION TIME  TEMP    WIND        PRES    WAVE
                       AIR SEA DIR/SP/G            HT/PER
                 (UTC) (F)     (DEG/KT/KT) (MB)    (FT/S)
CHAMBERS ISLAND  1430   47     350/ 14/ 16 1006.4S
N MID LAKE BUOY  1450   42 40   50/ 10/ 12 1007.2F   1
NORTHPORT PIER   1440   47     340/ 10/ 11 1006.8F
KEWAUNEE LAKESHO 1448   47      20/ 11/ 15 1005.4S
SHEBOYGAN LAKESH 1500   45      10/ 12/ 14 1005.3R
PORT WASHINGTON  1430   50      40/  4/  5 1005.8S
ATWATER BUOY     1409   45      10/ 14/ 17 1004.1F
MILWAUKEE LAKESH 1450   48     360/ 16/ 18   N/A
S MID LAKE BUOY  1450   48 45   20/ 16/ 17 1002.1F   2/ 4
KENOSHA   LAKESH 1500   49      10/ 21/ 24 1002.0
$$

TC  - TEMPERATURE IN CELSIUS
VSB - VISIBILITY IN STATUTE MILES
WCI - WIND CHILL INDEX
HX  - HEAT INDEX





USA.gov is the U.S. government's official web portal to all federal, state and local government web resources and services.